Simultaneous Nadir Overpasses (SNOs) Predictions

Prediction of SNOs between LANDSAT-8 and METOP-A Satellite Orbit:

Table of predicted SNOs for the next 14.0 days since TLE Epoch: 8/29/2020
Index Date (LANDSAT-8) Time (LANDSAT-8) Lat,Lon (LANDSAT-8) SZA (LANDSAT-8 ) Date (METOP-A) Time (METOP-A) Lat,Lon (METOP-A) SZA (METOP-A ) Distance(km) Time Diff (sec)
1 08/31/2020 08:02:11 81.47, 105.81 75.71 08/31/2020 08:01:59 81.45, 105.71 75.69 2.07 12
2 08/31/2020 08:51:39 -81.45, -86.97 104.34 08/31/2020 08:52:40 -81.45, -87.01 104.31 1.04 61
3 09/03/2020 03:36:27 81.46, 172.04 76.73 09/03/2020 03:36:22 81.45, 171.97 76.72 1.20 5
4 09/03/2020 04:25:54 -81.46, -20.32 103.27 09/03/2020 04:27:02 -81.45, -20.32 103.24 0.98 68
5 09/05/2020 22:21:17 -81.46, 70.98 102.21 09/05/2020 22:20:05 -81.45, 71.06 102.24 1.59 72
6 09/05/2020 23:10:44 81.45,-121.75 77.76 09/05/2020 23:10:46 81.46,-121.78 77.76 1.31 2
7 09/06/2020 00:00:04 -81.56, 48.69 101.85 09/06/2020 00:01:14 -81.33, 50.64 101.73 41.62 70
8 09/08/2020 17:55:34 -81.45, 137.19 101.16 09/08/2020 17:54:29 -81.45, 137.33 101.18 2.26 65
9 09/08/2020 18:45:00 81.45, -55.17 78.85 09/08/2020 18:45:09 81.45, -55.15 78.86 0.46 9
10 09/11/2020 13:29:49 -81.46,-156.23 100.06 09/11/2020 13:28:52 -81.46,-156.41 100.10 2.94 57
